Location: Casco Millpond
(44.5581°N, 87.6111°W)
Time: 22:16:11
(UTC+00:00)

Cosmos 1943 - Pass Details

Date: 16 January 2026
Orbit: 830 x 850 km, 71.0° (Epoch: 13 February)

Event Time Altitude Azimuth Distance (km) Brightness Sun altitude
Rises 23:12:41 0° 212° (SSW) 3,368 7.4 -6.4°
Reaches altitude 10° 23:15:08 10° 215° (SW) 2,441 6.6 -6.8°
Maximum altitude 23:20:42 66° 298° (WNW) 913 3.6 -7.7°
Drops below altitude 10° 23:26:21 10° 21° (NNE) 2,470 5.2 -8.7°
Sets 23:28:50 0° 24° (NNE) 3,412 5.9 -9.1°
Enters shadow 23:28:54 - 24° (NNE) 3,438 6.0 -9.1°
